Theta_e
319 319 319 321 321 321 320 320 320 323 324 324 325 327 327 329 327 321 314 321 325 333 325 321 322 318 318 315 315 311 298 295 298 299 301 300 299 302 307 307 307 312 316 319 321
320 320 318 319 321 321 321 321 321 323 324 324 325 327 326 327 318 314 322 328 331 331 321 320 315 317 310 309 310 305 296 298 304 304 301 302 300 302 304 306 307 313 319 321 322
320 320 320 320 320 321 322 322 322 323 323 323 323 326 325 323 313 313 328 330 333 330 322 319 320 314 308 309 307 304 299 302 301 305 303 300 300 303 303 301 307 311 316 319 321
320 320 320 320 320 320 320 321 322 323 322 322 322 325 324 316 297 312 328 330 333 322 319 316 314 310 304 304 306 303 306 306 306 307 307 300 302 301 302 305 308 312 320 319 320
319 319 319 319 319 320 320 320 321 321 321 322 322 324 318 309 308 316 322 327 326 318 316 314 312 310 304 304 304 303 305 307 308 308 308 302 297 299 300 303 302 317 321 318 318
318 318 318 318 319 319 319 319 321 321 322 322 322 322 313 302 316 316 323 323 317 316 315 315 313 312 307 305 305 305 305 306 308 308 308 305 301 295 299 302 310 318 319 320 319
318 318 318 318 319 319 319 320 320 320 321 321 320 316 309 306 315 313 321 319 317 315 312 314 315 312 308 304 309 307 304 306 308 308 306 301 294 293 300 297 310 315 318 319 320
318 317 317 317 318 319 319 320 320 320 320 320 320 311 302 314 313 315 315 313 315 317 313 314 317 312 309 307 304 302 302 296 305 308 309 298 292 298 301 296 298 311 313 317 320
317 317 317 317 317 318 318 319 319 319 320 319 310 307 300 317 309 313 314 312 314 315 316 317 314 308 305 299 297 296 290 293 299 307 307 299 292 299 303 296 297 298 311 316 318
317 316 317 317 317 317 318 318 317 316 315 315 312 301 303 303 310 311 312 314 312 312 310 309 306 301 301 299 290 292 292 295 297 302 303 299 295 298 299 300 297 297 295 309 315
316 316 316 316 317 317 314 307 299 299 306 301 301 300 302 309 314 309 312 312 312 307 299 304 298 294 298 300 299 297 295 294 299 304 302 301 301 303 301 297 297 298 296 296 304
316 316 316 316 317 316 309 298 298 298 295 303 304 304 307 309 304 308 313 305 304 298 301 298 293 299 301 301 300 298 294 293 299 304 302 301 299 303 303 302 300 301 301 296 298
312 315 316 316 316 311 304 300 304 302 291 296 301 302 303 307 301 304 309 305 301 297 298 294 296 301 300 299 297 297 295 293 295 299 302 298 296 300 304 300 300 301 302 305 302
313 310 315 315 308 306 301 304 306 298 276 283 295 299 304 304 298 308 310 305 300 296 297 297 300 298 298 296 298 293 301 299 298 295 291 298 289 297 301 302 303 302 303 304 306
312 312 308 315 305 301 303 306 300 291 262 283 293 303 301 297 300 302 311 305 298 297 297 293 296 296 296 297 300 296 300 298 297 295 292 289 286 292 298 296 300 301 303 306 307
311 311 311 311 305 305 307 302 294 272 262 281 293 294 294 295 297 302 305 307 305 298 298 296 300 300 299 301 301 302 297 296 295 292 285 291 288 290 291 292 297 300 301 303 305
309 310 307 309 299 307 305 295 274 264 277 285 287 291 291 291 293 296 296 296 292 286 289 293 294 298 300 296 300 299 294 284 282 282 283 289 288 292 295 294 295 297 299 297 299
309 309 307 305 307 307 300 285 266 270 273 288 289 290 286 291 292 293 292 291 296 293 288 287 284 294 299 295 293 295 294 287 280 279 281 285 284 289 297 300 303 301 301 296 295
308 301 299 302 305 305 292 277 274 273 279 287 290 285 286 289 289 292 291 290 295 295 288 287 287 297 298 297 298 294 290 293 285 277 277 282 284 288 293 293 294 293 296 297 297
300 296 293 303 304 300 286 278 277 280 286 288 281 287 283 286 287 289 289 294 293 296 298 293 286 293 295 298 298 295 296 287 286 278 275 279 279 285 287 293 300 293 291 293 294
298 289 295 303 303 292 281 279 279 283 287 283 280 285 285 286 288 287 288 292 296 294 297 295 291 288 293 292 292 292 290 292 290 285 281 275 281 287 293 293 291 293 293 293 292
289 283 296 302 286 286 282 280 288 284 286 284 283 284 288 288 287 288 288 290 295 296 291 296 289 284 288 293 297 296 293 293 287 283 281 280 283 289 290 290 289 289 290 291 291
286 289 297 299 282 282 285 282 285 284 284 284 283 285 286 288 285 289 290 295 295 296 293 295 286 282 283 289 291 290 294 295 292 286 283 282 285 291 286 286 288 289 290 290 287
288 282 288 291 285 284 281 281 280 285 284 285 284 285 284 284 286 286 288 293 295 296 298 298 287 283 282 282 289 288 291 293 292 286 286 286 287 290 289 287 288 289 289 289 289
286 283 285 281 283 284 284 281 281 280 284 284 283 283 283 279 282 282 285 287 289 296 297 294 283 286 287 287 287 289 290 292 289 291 287 290 290 293 295 294 290 288 289 289 289
284 284 285 285 285 284 285 281 281 281 282 281 281 282 282 281 281 280 284 285 286 292 293 290 283 286 284 288 287 282 289 292 292 292 292 292 291 294 293 292 286 289 288 289 290
290 290 286 286 284 282 281 280 281 283 284 283 283 282 281 282 286 286 287 287 287 287 286 287 284 283 280 285 286 282 286 289 292 293 293 288 294 293 291 289 291 290 289 290 291
Wind_Speed
18 17 16 13 15 14 12 10 9 10 8 7 7 6 5 5 8 3 6 7 6 11 6 0 4 2 6 5 5 7 3 2 3 4 5 1 3 2 0 7 2 3 6 4 16
19 17 18 16 13 14 13 12 10 9 9 7 7 6 4 10 3 7 5 8 8 9 5 6 3 4 6 6 4 5 4 4 2 4 5 4 5 5 4 5 3 2 0 10 19
20 18 17 16 14 12 13 12 11 10 8 7 7 8 6 7 2 5 16 11 5 9 3 3 5 4 5 4 5 6 5 4 4 9 11 8 4 4 5 4 8 13 8 16 15
21 20 18 16 14 13 12 10 11 9 10 7 7 9 9 2 8 2 6 20 10 9 6 5 4 6 4 10 10 5 10 7 6 6 11 11 8 6 8 9 6 7 15 18 17
23 21 19 17 16 14 13 11 10 10 10 9 7 8 5 5 6 0 3 9 8 9 9 7 7 3 6 4 6 6 5 6 7 7 10 10 10 8 9 6 1 9 11 19 19
25 22 20 18 17 15 14 13 12 12 11 10 6 6 4 12 1 3 5 9 7 7 7 6 5 5 1 5 5 12 6 5 3 7 7 11 12 2 8 6 4 10 16 18 19
27 24 23 20 18 16 14 12 12 12 12 13 6 3 7 7 2 1 7 6 8 9 5 4 6 3 6 3 3 4 4 5 6 4 5 8 13 9 10 1 8 10 12 12 16
29 26 24 22 20 18 15 13 11 12 13 14 7 3 6 6 5 4 4 3 5 5 4 7 6 4 2 3 1 4 4 1 4 6 6 5 18 12 10 6 10 9 9 13 14
32 29 26 24 21 19 16 12 9 11 13 11 4 4 5 5 6 5 3 7 4 4 3 5 5 5 4 6 0 2 4 4 5 7 3 12 8 11 11 9 12 10 11 12 15
27 30 29 26 23 20 16 13 8 7 6 5 1 4 3 5 5 7 3 7 4 6 6 5 4 5 4 8 21 6 5 4 6 6 6 13 18 17 11 7 14 11 10 12 13
30 34 32 29 26 23 17 10 7 2 6 6 5 3 3 1 6 7 6 7 6 7 11 15 8 19 26 16 2 6 9 10 6 5 6 12 17 19 16 10 10 10 11 12 15
28 30 31 31 29 27 14 8 10 8 7 9 1 10 2 2 6 10 14 13 6 14 9 5 18 16 8 9 12 5 10 12 4 4 3 9 18 20 20 17 19 18 13 12 16
22 28 33 32 31 22 19 11 9 6 6 5 7 6 4 4 5 12 18 13 8 14 22 22 4 13 11 14 16 16 18 7 5 2 4 4 17 22 21 10 17 16 14 16 18
22 17 26 33 24 18 17 8 9 5 7 6 9 7 5 4 6 7 20 10 10 17 20 9 11 17 15 14 17 19 9 5 3 3 5 6 12 19 13 22 23 19 19 21 20
25 25 9 35 14 25 18 11 8 10 3 7 8 3 10 10 6 8 15 14 14 13 10 11 13 18 18 20 17 8 9 11 7 6 3 4 5 7 9 14 16 19 21 22 24
28 27 28 21 10 17 15 12 6 10 10 4 9 13 13 10 7 4 7 9 6 8 9 8 3 12 14 12 19 8 5 3 3 2 8 8 8 11 8 8 10 13 15 21 20
23 25 21 6 14 22 18 12 6 8 5 10 9 13 17 11 16 8 8 9 8 8 14 11 10 2 3 7 6 9 9 3 5 5 11 8 12 21 5 5 7 10 13 10 10
29 23 15 11 11 21 14 11 8 5 9 3 10 16 16 8 15 16 9 11 15 4 4 11 9 19 11 7 9 17 11 4 5 5 2 1 13 9 12 17 14 10 16 7 9
24 8 5 11 13 18 17 18 13 11 12 13 14 15 11 11 7 12 19 17 7 24 10 8 7 14 12 6 11 7 8 2 3 2 2 6 10 6 14 11 12 12 9 13 11
8 9 7 14 14 20 19 15 6 6 11 13 8 10 16 17 10 17 16 13 16 11 10 6 4 13 11 5 5 10 11 5 3 4 6 6 7 10 4 14 19 8 11 12 10
7 6 10 9 10 15 19 9 5 6 6 8 7 8 7 13 15 12 9 3 13 18 12 3 5 3 11 16 16 7 9 7 6 5 7 3 10 10 21 15 7 11 8 11 10
4 5 8 13 11 11 20 6 5 6 1 3 6 6 13 11 14 13 15 7 6 17 15 6 2 5 15 2 13 17 11 13 9 11 4 2 12 4 9 5 6 12 9 8 8
8 4 6 9 11 15 13 4 5 7 6 5 4 2 3 7 6 10 8 3 5 15 14 11 4 4 5 2 2 8 15 19 9 3 12 9 12 5 4 4 8 9 9 5 2
4 6 6 9 2 19 21 4 6 3 3 5 6 5 7 5 2 9 8 5 6 10 11 12 5 7 11 3 8 14 19 20 19 8 10 17 9 7 8 5 7 6 4 5 5
2 2 2 9 9 19 17 4 14 7 2 4 4 4 9 6 5 6 5 4 2 7 7 5 4 5 9 4 3 8 21 23 22 23 12 22 20 15 17 11 6 5 7 5 7
4 4 1 13 20 23 16 10 15 4 7 6 7 7 5 8 7 8 8 4 5 5 10 3 2 1 3 12 6 4 11 20 22 22 23 30 34 10 9 7 6 8 7 8 8
2 2 3 16 23 17 16 14 15 10 7 5 12 6 3 7 6 5 5 4 3 6 7 8 6 4 5 6 5 9 24 18 22 21 28 28 40 5 9 9 10 10 9 10 10
Wind_Direction
224 228 228 228 216 211 213 224 244 239 245 261 273 253 247 165 129 155 204 220 197 162 117 220 2 139 76 87 65 349 284 238 247 173 253 325 222 182 292 130 205 186 162 215 136
219 218 226 224 222 215 212 213 232 230 236 240 260 228 218 157 183 224 240 209 234 145 125 156 148 201 91 82 74 104 298 227 314 316 296 287 227 201 170 151 233 250 288 135 143
217 213 215 220 220 220 222 212 219 220 216 227 247 211 169 155 247 235 198 224 198 160 107 118 143 32 94 106 168 160 203 315 298 327 342 303 249 208 179 242 211 198 167 159 162
214 213 209 209 212 215 219 216 214 215 214 222 238 199 168 154 211 329 228 191 184 140 116 124 134 143 151 171 152 187 231 225 280 334 335 311 310 240 197 220 209 192 168 160 173
211 210 208 205 206 209 213 216 221 216 210 210 224 197 136 208 237 67 289 187 150 151 156 170 156 154 184 144 125 168 212 212 241 304 313 309 275 251 249 236 301 141 162 178 182
206 204 203 202 199 202 201 217 222 215 204 203 213 202 217 233 244 133 73 132 143 170 165 148 203 151 90 167 220 185 183 230 265 283 298 290 276 350 269 183 126 163 182 189 190
202 200 197 197 194 196 198 210 219 209 201 202 177 114 250 236 357 80 136 166 164 183 165 163 153 145 140 135 162 147 204 222 204 219 245 324 283 218 243 222 182 197 196 202 204
201 196 195 190 191 190 191 202 212 207 202 208 184 91 239 189 130 94 99 55 95 78 139 153 161 136 140 105 133 191 241 186 188 179 231 167 266 286 245 194 222 215 209 204 214
200 191 191 188 185 185 181 189 195 204 203 199 127 173 234 75 168 161 113 135 115 104 109 134 122 153 143 154 261 213 245 198 288 181 254 200 275 250 240 205 237 211 214 212 222
203 190 186 186 178 177 170 170 199 194 189 174 164 139 238 200 163 141 125 143 141 138 123 186 167 168 216 185 220 190 236 227 215 178 187 261 258 267 274 248 236 226 217 221 219
205 190 185 180 173 169 153 123 113 207 216 197 169 221 121 89 104 160 144 147 169 188 177 184 200 208 206 212 92 178 204 227 237 161 158 239 256 259 260 254 264 244 230 225 225
190 186 185 176 170 166 159 179 174 167 173 241 312 200 55 256 176 164 147 184 196 205 163 183 218 218 203 201 226 218 213 226 317 160 198 238 257 257 256 245 245 242 238 224 239
172 187 183 177 167 162 179 185 143 126 126 210 211 189 186 180 208 183 181 197 201 236 193 205 203 199 202 188 207 228 225 199 218 341 257 335 264 262 254 229 237 241 239 237 224
188 171 192 170 163 170 190 184 138 117 77 235 196 212 155 89 261 175 189 190 204 215 228 241 192 197 201 208 197 230 191 211 182 220 239 164 288 255 250 239 240 239 237 237 236
191 187 186 174 157 183 165 142 126 55 109 223 167 157 164 174 121 212 186 206 221 189 182 200 182 201 194 206 194 227 160 198 227 274 266 173 277 270 236 229 237 237 238 238 233
211 193 185 194 163 165 144 135 72 64 239 179 150 171 159 192 193 132 180 210 167 179 217 204 250 199 204 185 188 127 82 78 114 148 245 189 195 253 227 210 234 241 238 235 240
215 188 175 231 156 154 149 151 92 148 283 171 176 182 181 170 193 197 185 207 162 149 196 175 186 186 180 151 173 155 137 201 182 195 242 184 197 245 252 236 249 260 259 234 232
206 173 182 185 171 152 168 158 121 200 201 186 154 167 193 144 204 203 226 226 232 158 140 176 185 177 187 197 187 196 183 195 221 198 196 248 227 245 234 242 262 257 252 267 255
190 146 142 170 219 161 168 184 190 182 162 154 141 164 182 196 157 182 213 226 224 207 207 175 224 175 186 174 159 165 201 180 89 147 354 222 285 284 270 244 253 233 223 242 242
176 136 165 178 222 171 174 174 160 195 126 144 152 185 182 187 180 186 180 211 208 196 209 184 243 188 186 213 237 191 138 157 153 214 239 261 277 240 304 254 250 250 213 240 244
177 158 163 189 208 174 182 169 162 188 109 139 158 139 167 178 183 194 195 335 172 182 211 166 207 159 148 203 183 159 181 201 167 189 221 264 256 208 215 238 263 274 259 238 217
110 158 164 177 196 183 171 178 142 143 126 122 102 111 170 158 181 194 209 201 207 157 202 187 168 187 209 134 218 217 207 191 200 218 231 212 258 234 216 241 267 271 275 270 252
151 106 167 192 181 170 155 168 104 141 170 163 119 138 118 138 158 204 192 194 173 186 189 166 183 153 153 298 313 203 210 215 212 38 211 206 248 295 202 229 236 246 270 248 269
124 158 158 192 315 161 161 160 106 61 112 94 107 88 107 136 33 172 173 198 204 201 197 158 174 218 230 135 135 207 207 213 221 209 225 224 242 254 306 296 295 278 264 275 243
109 192 81 161 175 164 168 146 130 143 183 195 58 188 150 120 141 167 175 200 208 205 167 181 193 208 259 280 345 211 214 215 218 234 246 247 255 257 277 282 283 265 297 258 248
125 138 143 156 158 162 171 184 159 120 149 194 144 157 154 141 174 172 139 186 184 163 175 136 212 105 251 263 231 263 240 210 213 229 243 262 267 265 229 240 244 246 252 258 253
122 66 171 159 161 160 175 167 176 130 21 120 124 117 173 152 125 140 91 98 92 160 177 163 158 140 256 220 235 245 232 219 216 221 222 235 239 151 229 230 229 238 214 231 236